Date String (YYYY-MM-DD hh:mm:ss) UTC,Instrument flags,Ambient pressure (hPa),Sample flow (lpm),Bypass flow (lpm),Sample temperature (°C),Ambient temperature (°C),ASC tube jacket temperature (°C),LED temperature (°C),Box temperature (°C),Sample RH (%),Span deviation,Mass concentration (μg/m³),Mass concentration (μg/m³),Mass concentration (μg/m³)
DateTimeUTC,F1_M11,P_M11,Q1_M11,Q2_M11,T1_M11,T2_M11,T3_M11,T4_M11,T5_M11,U1_M11,ZSPAN_M11,X0_M11,X2_M11,X1_M11
2022-10-22 16:00:00,,0813.5,5.01,0.00,30.4,26.9,00.0,39.1,32.1,08.7,0000.0,0016.21,0005.45,0004.77
2022-10-22 16:01:00,,0813.5,5.00,0.00,30.3,26.7,00.0,39.0,32.0,08.6,0000.0,0015.67,0005.48,0004.77
2022-10-22 16:02:00,,0813.5,4.99,0.00,30.3,27.0,00.0,39.0,31.9,08.6,0000.0,0016.35,0005.47,0004.75
2022-10-22 16:03:00,,0813.5,5.01,0.00,30.2,27.3,00.0,39.0,31.7,08.7,0000.0,0016.12,0005.42,0004.72
2022-10-22 16:04:00,,0813.4,4.99,0.00,30.1,27.6,00.0,38.9,31.8,08.6,0000.0,0014.83,0005.35,0004.68
2022-10-22 16:05:00,,0813.5,5.01,0.00,30.1,27.8,00.0,38.9,31.7,09.0,0000.0,0014.44,0005.30,0004.64
2022-10-22 16:06:00,,0813.4,5.00,0.00,30.1,28.0,00.0,38.9,31.7,09.1,0000.0,0014.34,0005.22,0004.60
2022-10-22 16:07:00,,0813.4,4.99,0.00,30.0,28.2,00.0,38.9,31.7,08.5,0000.0,0013.42,0005.16,0004.57
2022-10-22 16:08:00,,0813.4,5.01,0.00,30.0,28.3,00.0,38.9,31.8,07.9,0000.0,0014.25,0005.12,0004.55
2022-10-22 16:09:00,,0813.4,5.00,0.00,30.0,28.5,00.0,38.9,31.8,07.9,0000.0,0013.53,0005.01,0004.52
2022-10-22 16:10:00,,0813.4,5.00,0.00,30.0,28.5,00.0,38.9,31.7,07.9,0000.0,0012.78,0004.98,0004.52
2022-10-22 16:11:00,,0813.4,5.00,0.00,30.1,28.6,00.0,38.9,31.8,07.8,0000.0,0012.42,0004.94,0004.52
2022-10-22 16:12:00,,0813.4,4.99,0.00,30.1,28.7,00.0,38.9,31.9,07.8,0000.0,0011.47,0004.87,0004.50
2022-10-22 16:13:00,,0813.4,5.01,0.00,30.1,28.8,00.0,38.9,31.9,07.5,0000.0,0011.27,0004.82,0004.48
2022-10-22 16:14:00,,0813.4,5.01,0.00,30.1,28.8,00.0,38.9,31.9,07.4,0000.0,0010.90,0004.79,0004.47
2022-10-22 16:15:00,,0813.3,4.98,0.00,30.1,28.9,00.0,38.9,32.0,07.4,0000.0,0010.76,0004.75,0004.45
2022-10-22 16:16:00,,0813.4,5.01,0.00,30.2,28.9,00.0,39.0,32.0,07.4,0000.0,0010.58,0004.75,0004.44
2022-10-22 16:17:00,,0813.3,5.01,0.00,30.2,29.0,00.0,39.0,32.0,07.4,0000.0,0010.07,0004.75,0004.44
2022-10-22 16:18:00,,0813.3,4.98,0.00,30.2,29.0,00.0,39.0,32.0,07.4,0000.0,0009.97,0004.75,0004.44
2022-10-22 16:19:00,,0813.3,5.00,0.00,30.2,28.7,00.0,39.0,32.0,07.4,0000.0,0008.68,0004.72,0004.42
2022-10-22 16:20:00,,0813.3,5.01,0.00,30.2,27.4,00.0,38.9,32.0,07.5,0000.0,0008.53,0004.73,0004.41
2022-10-22 16:21:00,,0813.3,5.00,0.00,30.2,26.8,00.0,38.9,31.9,07.4,0000.0,0008.53,0004.75,0004.39
2022-10-22 16:22:00,,0813.3,5.01,0.00,30.1,27.0,00.0,38.9,31.8,07.4,0000.0,0008.48,0004.72,0004.36
2022-10-22 16:23:00,,0813.2,4.99,0.00,30.1,27.3,00.0,38.8,31.7,07.4,0000.0,0008.56,0004.69,0004.33
2022-10-22 16:24:00,,0813.2,4.99,0.00,30.0,27.6,00.0,38.9,31.7,07.4,0000.0,0008.23,0004.68,0004.32
2022-10-22 16:25:00,,0813.2,5.00,0.00,30.0,27.8,00.0,38.8,31.7,07.3,0000.0,0007.97,0004.67,0004.31
2022-10-22 16:26:00,,0813.2,5.00,0.00,30.0,28.0,00.0,38.8,31.7,07.4,0000.0,0007.89,0004.70,0004.33
2022-10-22 16:27:00,,0813.1,5.00,0.00,30.0,28.2,00.0,38.8,31.7,07.6,0000.0,0007.83,0004.74,0004.35
2022-10-22 16:28:00,,0813.2,5.00,0.00,30.0,28.3,00.0,38.8,31.7,07.6,0000.0,0008.00,0004.78,0004.35
2022-10-22 16:29:00,,0813.1,5.00,0.00,30.0,28.4,00.0,38.8,31.8,07.6,0000.0,0008.54,0004.81,0004.34
2022-10-22 16:30:00,,0813.1,5.00,0.00,30.0,28.6,00.0,38.8,31.8,07.6,0000.0,0008.74,0004.82,0004.34
2022-10-22 16:31:00,,0813.2,4.99,0.00,30.0,28.7,00.0,38.9,31.8,07.7,0000.0,0009.25,0004.83,0004.33
2022-10-22 16:32:00,,0813.2,5.01,0.00,30.0,28.7,00.0,38.9,31.9,07.8,0000.0,0009.27,0004.81,0004.33
2022-10-22 16:33:00,,0813.2,5.00,0.00,30.1,28.8,00.0,38.9,31.9,07.8,0000.0,0009.60,0004.80,0004.31
2022-10-22 16:34:00,,0813.3,4.99,0.00,30.1,28.9,00.0,38.9,31.9,07.8,0000.0,0009.64,0004.80,0004.29
2022-10-22 16:35:00,,0813.2,5.01,0.00,30.1,28.9,00.0,38.9,32.0,07.8,0000.0,0009.16,0004.76,0004.26
2022-10-22 16:36:00,,0813.2,5.00,0.00,30.1,28.6,00.0,38.9,32.0,07.9,0000.0,0009.57,0004.73,0004.22
2022-10-22 16:37:00,,0813.2,5.00,0.00,30.1,27.3,00.0,38.9,31.9,07.8,0000.0,0009.79,0004.65,0004.14
2022-10-22 16:38:00,,0813.1,5.00,0.00,30.1,26.6,00.0,38.8,31.8,07.8,0000.0,0009.69,0004.51,0004.03
2022-10-22 16:39:00,,0813.2,5.02,0.00,30.0,26.8,00.0,38.8,31.7,07.9,0000.0,0009.40,0004.38,0003.94
2022-10-22 16:40:00,,0813.1,4.98,0.00,30.0,27.1,00.0,38.7,31.5,07.9,0000.0,0008.83,0004.28,0003.85
2022-10-22 16:41:00,,0813.2,5.01,0.00,29.9,27.4,00.0,38.7,31.5,08.0,0000.0,0008.61,0004.22,0003.77
2022-10-22 16:42:00,,0813.1,4.99,0.00,29.9,27.7,00.0,38.7,31.6,08.1,0000.0,0008.19,0004.16,0003.73
2022-10-22 16:43:00,,0813.1,5.00,0.00,29.9,27.9,00.0,38.7,31.6,08.1,0000.0,0008.15,0004.09,0003.69
2022-10-22 16:44:00,,0813.1,5.00,0.00,29.9,28.1,00.0,38.7,31.6,08.1,0000.0,0007.79,0004.08,0003.70
2022-10-22 16:45:00,,0813.1,5.01,0.00,29.9,28.3,00.0,38.7,31.7,08.1,0000.0,0007.70,0004.04,0003.70
2022-10-22 16:46:00,,0813.2,5.01,0.00,29.9,28.4,00.0,38.7,31.7,08.2,0000.0,0007.90,0004.04,0003.69
2022-10-22 16:47:00,,0813.1,4.98,0.00,29.9,28.5,00.0,38.8,31.7,08.3,0000.0,0007.71,0004.05,0003.69
2022-10-22 16:48:00,,0813.1,5.01,0.00,29.9,28.6,00.0,38.8,31.7,08.3,0000.0,0007.60,0004.06,0003.68
2022-10-22 16:49:00,,0813.1,5.01,0.00,30.0,28.7,00.0,38.8,31.8,08.3,0000.0,0007.66,0004.09,0003.68
2022-10-22 16:50:00,,0813.1,4.98,0.00,30.0,28.8,00.0,38.8,31.9,08.3,0000.0,0008.00,0004.10,0003.69
2022-10-22 16:51:00,,0813.1,5.01,0.00,30.0,28.8,00.0,38.8,31.9,08.2,0000.0,0008.21,0004.09,0003.70
2022-10-22 16:52:00,,0813.1,4.99,0.00,30.0,27.8,00.0,38.8,31.9,08.2,0000.0,0008.21,0004.08,0003.70
2022-10-22 16:53:00,,0813.1,5.02,0.00,30.0,26.6,00.0,38.7,31.8,08.2,0000.0,0008.45,0004.05,0003.68
2022-10-22 16:54:00,,0813.1,4.98,0.00,30.0,26.6,00.0,38.7,31.7,08.2,0000.0,0008.43,0004.04,0003.65
2022-10-22 16:55:00,,0813.0,5.01,0.00,29.9,26.8,00.0,38.6,31.6,08.1,0000.0,0008.42,0004.01,0003.61
2022-10-22 16:56:00,,0813.1,4.99,0.00,29.8,27.2,00.0,38.6,31.5,08.3,0000.0,0008.44,0003.98,0003.57
2022-10-22 16:57:00,,0813.1,5.02,0.00,29.8,27.5,00.0,38.6,31.5,08.3,0000.0,0008.27,0003.95,0003.52
2022-10-22 16:58:00,,0813.0,5.00,0.00,29.8,27.7,00.0,38.6,31.5,08.4,0000.0,0007.96,0003.90,0003.48
2022-10-22 16:59:00,,0813.1,5.00,0.00,29.8,28.0,00.0,38.6,31.5,08.3,0000.0,0007.74,0003.84,0003.46
